Las Vegas, NM

5:13 AM MDT on March 25, 2017 (GMT -0600)
Las Vegas Municipal

Weather History for KLVS - March, 2014

Change the Weather History Date:

Friday, March 14, 2014

  Actual Average Record
Temperature  
Mean Temperature 44 °F -  
Max Temperature 53 °F 54 °F 73 °F (2007)
Min Temperature 34 °F 27 °F 4 °F (1988)
Degree Days  
Heating Degree Days 22    
Moisture  
Dew Point 23 °F    
Average Humidity 50    
Maximum Humidity 82    
Minimum Humidity 22    
Precipitation  
Precipitation 0.00 in - - ()
Sea Level Pressure  
Sea Level Pressure 29.93 in    
Wind  
Wind Speed 10 mph (West)    
Max Wind Speed 20 mph    
Max Gust Speed 25 mph    
Visibility 10 miles    
Events      
Averages and records for this station are not official NWS values.
T = Trace of Precipitation, MM = Missing Value Source: NWS Daily Summary

Daily Weather History Graph

Daily Weather History Graph

Search for Another Location

Airport or City:

Trip Planner

Search our weather history database for the weather conditions in past years. The results will help you decide how hot, cold, wet, or windy it might be!

Date:

Astronomy

Mar. 14, 2014 Rise Set
Actual Time 7:12 AM MDT 7:07 PM MDT
Civil Twilight 6:47 AM MDT 7:32 PM MDT
Nautical Twilight 6:17 AM MDT 8:02 PM MDT
Astronomical Twilight 5:47 AM MDT 8:32 PM MDT
Moon 5:34 PM MDT (3/14) 5:51 AM MDT (3/14)
Length of Visible Light 12h 45m
Length of Day
11h 54m
Waxing Gibbous, 96% of the Moon is Illuminated
Mar 14
Waxing Gibbous
Mar 16
Full
Mar 23
Last Quarter
Mar 30
New
Apr 7
First Quarter

Hourly Weather History & Observations

Time (MDT) Temp. Windchill Dew Point Humidity Pressure Visibility Wind Dir Wind Speed Gust Speed Precip Events Conditions
12:53 AM 42.1 °F 34.9 °F 26.1 °F 53% 29.78 in 10.0 mi WSW 13.8 mph - N/A   Clear
1:53 AM 37.0 °F 29.8 °F 25.0 °F 62% 29.81 in 10.0 mi West 10.4 mph - N/A   Clear
2:53 AM 36.0 °F 30.3 °F 23.0 °F 59% 29.81 in 10.0 mi NE 6.9 mph - N/A   Clear
3:53 AM 39.9 °F 37.8 °F 23.0 °F 51% 29.79 in 10.0 mi NNE 3.5 mph - N/A   Clear
4:53 AM 34.0 °F 28.0 °F 21.0 °F 59% 29.83 in 10.0 mi NNE 6.9 mph - N/A   Clear
5:53 AM 34.0 °F 28.0 °F 19.9 °F 56% 29.86 in 10.0 mi NNW 6.9 mph - N/A   Clear
6:53 AM 34.0 °F 28.0 °F 21.0 °F 59% 29.91 in 10.0 mi NNE 6.9 mph - N/A   Mostly Cloudy
7:53 AM 34.0 °F 28.0 °F 21.0 °F 59% 29.96 in 10.0 mi NE 6.9 mph - N/A   Overcast
8:53 AM 39.9 °F 35.1 °F 21.9 °F 49% 29.99 in 10.0 mi ENE 6.9 mph - N/A   Overcast
9:53 AM 44.1 °F 40.1 °F 28.0 °F 53% 29.99 in 10.0 mi NNW 6.9 mph - N/A   Overcast
10:53 AM 45.0 °F - 28.0 °F 52% 30.00 in 10.0 mi Calm Calm - N/A   Partly Cloudy
11:53 AM 46.0 °F 40.6 °F 30.0 °F 54% 30.02 in 10.0 mi North 11.5 mph - N/A   Overcast
12:53 PM 46.9 °F - 27.0 °F 46% 29.98 in 10.0 mi NNE 6.9 mph - N/A   Overcast
1:53 PM 46.9 °F - 23.0 °F 39% 29.99 in 10.0 mi Variable 3.5 mph - N/A   Overcast
2:53 PM 51.1 °F - 19.9 °F 29% 29.95 in 10.0 mi South 13.8 mph 21.9 mph N/A   Scattered Clouds
3:53 PM 53.1 °F - 15.1 °F 22% 29.91 in 10.0 mi South 12.7 mph 24.2 mph N/A   Partly Cloudy
4:53 PM 52.0 °F - 18.0 °F 26% 29.94 in 10.0 mi South 13.8 mph 24.2 mph N/A   Mostly Cloudy
5:53 PM 48.0 °F - 15.1 °F 27% 29.96 in 10.0 mi South 13.8 mph - N/A   Overcast
6:53 PM 46.0 °F 42.5 °F 16.0 °F 30% 29.98 in 10.0 mi SSW 6.9 mph - N/A   Overcast
7:53 PM 44.1 °F 40.1 °F 21.0 °F 40% 30.00 in 10.0 mi WSW 6.9 mph - N/A   Overcast
8:53 PM 43.0 °F 37.7 °F 19.9 °F 40% 29.99 in 10.0 mi SW 9.2 mph - N/A   Overcast
9:53 PM 37.9 °F 28.2 °F 28.9 °F 70% 30.01 in 10.0 mi SW 18.4 mph - N/A   Mostly Cloudy
10:53 PM 37.9 °F 27.9 °F 30.0 °F 73% 29.99 in 10.0 mi SW 19.6 mph 25.3 mph N/A   Mostly Cloudy
11:53 PM 36.0 °F 25.3 °F 30.9 °F 82% 29.97 in 10.0 mi SW 19.6 mph - N/A   Mostly Cloudy